Vorticity
nan nan nan nan nan nan nan nan nan nan nan nan nan nan nan nan nan nan nan nan nan nan nan nan nan nan nan nan nan nan nan nan nan nan nan nan nan nan nan nan nan nan nan
nan 8 9 8 5 7 7 6 9 6 7 7 7 6 7 7 7 7 7 9 7 5 6 5 4 4 4 4 3 3 3 5 3 3 4 4 5 4 4 4 4 4 nan
nan 10 8 7 8 8 8 7 6 6 7 7 7 6 6 5 7 8 6 8 8 7 7 7 6 5 4 4 4 4 4 4 4 4 3 4 4 4 4 4 4 4 nan
nan 7 9 7 8 7 9 10 7 7 8 7 7 6 6 7 6 6 7 6 8 8 9 10 9 8 6 5 4 5 5 5 4 4 4 3 4 4 4 4 4 4 nan
nan 6 10 10 8 7 9 7 8 7 9 8 7 7 6 8 7 7 6 6 8 7 10 12 7 9 9 7 5 5 4 5 5 5 5 4 4 4 4 3 4 3 nan
nan 7 8 10 7 5 9 9 9 7 8 8 7 7 7 7 6 7 7 8 5 6 9 8 9 9 12 10 7 5 5 5 4 4 6 5 4 4 4 4 3 3 nan
nan 4 5 7 5 9 6 9 10 9 7 8 7 7 7 8 7 6 7 8 8 8 6 5 7 9 14 14 8 6 5 6 6 6 5 5 5 4 4 4 4 4 nan
nan 5 5 6 7 6 9 8 6 8 8 8 6 6 7 7 9 9 7 8 9 9 8 8 4 6 9 13 15 12 7 7 8 8 7 8 7 5 5 4 4 4 nan
nan 6 7 7 8 5 10 9 9 7 6 7 5 5 8 10 12 12 8 8 8 8 11 11 9 7 5 10 14 13 10 7 8 10 11 11 9 8 8 6 5 4 nan
nan 5 5 7 8 11 9 8 8 6 8 6 7 5 4 8 11 12 11 9 7 7 5 7 14 12 8 7 8 16 20 9 9 8 7 7 9 11 10 8 7 7 nan
nan 8 7 4 7 11 6 9 9 7 7 7 9 10 8 7 6 7 8 7 9 8 7 7 8 12 13 8 10 13 13 12 12 12 11 8 6 5 6 7 8 10 nan
nan 11 6 7 6 9 9 7 10 8 6 7 7 7 9 9 9 8 8 8 8 7 8 9 8 9 10 14 9 14 14 10 10 8 8 9 10 10 10 10 9 10 nan
nan 12 10 6 7 7 9 5 7 7 7 7 5 7 8 8 7 8 11 10 10 8 8 7 8 9 10 10 15 15 5 7 9 9 10 10 11 11 11 11 11 11 nan
nan 9 9 8 8 5 7 7 5 7 7 7 7 6 8 8 8 9 9 8 8 9 10 9 9 7 9 11 16 12 7 10 8 9 9 9 9 9 9 9 9 9 nan
nan 10 9 9 8 8 6 4 2 7 7 8 10 6 6 8 8 9 8 10 7 7 10 11 9 11 10 9 12 8 12 15 9 9 8 8 8 9 8 8 7 8 nan
nan 8 10 9 7 7 7 6 5 7 6 6 8 8 5 5 7 8 10 10 10 8 8 9 11 14 11 9 12 10 13 11 7 6 7 8 8 8 8 8 8 8 nan
nan 7 7 8 8 7 6 6 7 9 7 5 5 6 6 6 6 10 11 8 9 7 7 6 11 15 14 11 8 9 11 5 10 11 8 8 7 6 7 7 8 8 nan
nan 8 8 8 7 7 8 7 6 7 8 7 7 7 7 9 9 9 8 10 9 10 10 12 8 10 13 11 11 9 9 9 12 17 13 8 6 5 6 7 8 8 nan
nan 9 9 8 8 8 8 9 9 7 7 8 8 8 8 8 9 9 9 9 9 10 10 11 5 9 12 11 9 11 9 9 14 13 11 7 8 6 7 8 8 8 nan
nan 10 8 9 9 9 10 9 9 8 8 8 8 8 11 13 12 6 8 5 8 9 9 8 8 9 9 11 9 11 10 11 10 9 4 7 14 14 11 7 6 9 nan
nan 10 9 10 8 9 11 13 10 9 9 9 10 10 14 15 12 5 5 9 10 8 9 10 7 6 9 14 12 6 10 11 11 10 8 11 10 11 13 12 11 15 nan
nan 9 10 9 7 9 13 13 10 10 11 11 10 12 12 13 12 12 13 21 19 18 14 9 10 10 8 7 12 11 10 10 11 11 11 8 8 7 9 13 17 15 nan
nan 11 10 10 10 8 14 13 10 7 9 11 10 9 8 12 16 17 15 16 14 17 23 20 13 14 16 12 10 9 9 9 10 10 11 7 9 9 10 12 12 7 nan
nan 10 12 10 9 12 16 15 10 10 13 16 16 16 18 17 18 19 12 7 7 9 15 23 19 15 14 17 13 10 9 7 8 8 10 11 10 8 8 9 6 7 nan
nan 11 16 19 17 11 16 20 13 14 13 15 19 25 25 22 24 12 6 6 7 5 8 13 11 9 9 11 13 12 10 10 9 11 12 11 9 11 9 11 13 11 nan
nan nan nan nan nan nan nan nan nan nan nan nan nan nan nan nan nan nan nan nan nan nan nan nan nan nan nan nan nan nan nan nan nan nan nan nan nan nan nan nan nan nan nan
CAPE
282 251 331 266 68 107 32 0 18 3 1 1 1 4 11 28 17 5 15 34 39 37 13 16 17 12 7 3 1 1 0 2 1 0 0 0 0 0 0 0 0 0 0
203 261 298 278 206 209 132 40 50 12 2 1 0 2 5 10 21 13 10 24 32 52 35 12 13 17 10 6 2 2 1 0 3 0 0 0 0 0 0 0 0 0 0
238 309 334 397 309 264 241 147 39 17 2 0 0 0 1 6 10 24 4 9 11 21 36 49 24 13 20 15 6 3 2 0 0 2 0 0 0 0 0 0 0 0 0
206 271 237 232 194 239 160 82 20 14 7 0 0 0 0 1 2 6 25 17 2 11 1 40 51 45 35 21 12 5 0 0 1 1 1 0 0 0 0 0 0 0 0
180 217 180 220 218 139 169 117 104 69 32 2 0 0 0 0 0 0 1 1 19 14 7 4 9 34 53 32 14 12 8 3 1 1 2 0 0 0 0 0 0 0 0
140 162 167 207 90 73 55 101 108 47 24 0 0 0 0 0 0 0 0 0 0 0 3 43 3 9 12 53 49 16 21 20 12 4 2 2 0 0 0 0 0 0 0
144 183 192 261 264 128 97 213 78 54 0 0 0 0 0 0 0 0 0 0 0 0 0 0 21 0 0 17 64 33 35 38 40 21 8 6 7 0 0 0 0 0 0
208 258 270 266 269 247 288 237 240 81 24 6 0 0 0 0 0 0 0 0 0 0 0 0 0 0 28 34 19 43 40 41 32 64 48 18 11 13 9 2 1 0 0
172 224 309 280 255 340 297 327 363 294 155 60 51 90 85 54 89 0 0 0 0 0 0 0 0 0 0 0 63 19 0 21 93 84 96 87 60 35 22 24 16 12 12
155 154 138 153 295 250 270 327 302 293 309 212 99 40 213 204 206 98 9 0 0 0 0 0 0 0 0 0 2 4 0 0 1 68 54 53 43 68 79 72 68 58 42
75 75 112 93 158 331 279 394 390 383 351 260 325 221 122 170 249 165 186 0 0 0 0 0 0 0 0 0 0 0 0 0 0 0 11 6 0 0 0 8 32 52 51
44 125 115 101 96 180 232 287 312 394 342 327 315 358 304 172 105 71 37 177 59 0 0 0 0 0 10 28 0 0 0 0 0 0 0 0 0 0 0 0 0 1 20
30 112 132 157 170 170 130 183 323 359 400 336 442 422 283 282 233 138 131 49 58 5 3 0 0 0 0 31 1 0 0 0 0 0 0 0 0 0 0 0 0 0 0
21 70 164 148 156 115 81 170 187 183 197 295 380 425 336 224 291 259 115 71 95 6 10 1 0 0 0 0 0 0 0 0 0 0 0 0 0 0 0 0 0 0 0
55 95 93 124 136 160 178 136 78 53 134 96 252 290 315 299 202 276 266 209 194 106 13 5 0 0 0 0 0 0 0 0 0 0 0 0 0 0 0 0 0 0 0
82 71 100 59 55 38 41 114 73 51 94 163 168 219 276 281 326 333 253 153 77 75 11 25 1 0 0 0 0 0 0 0 0 0 0 0 0 0 0 0 0 0 0
43 37 1 10 24 22 36 44 93 106 112 154 230 267 191 280 385 408 273 234 81 5 3 13 0 0 0 0 0 0 0 0 0 0 0 0 0 0 0 0 0 0 0
46 68 94 2 7 12 32 37 44 61 132 119 132 175 157 139 250 341 226 29 7 0 0 0 0 0 0 0 0 0 0 0 0 0 0 0 0 0 0 0 0 0 0
216 110 93 89 73 50 78 64 54 87 121 133 149 170 185 218 282 15 0 0 1 0 0 0 0 0 0 0 0 0 0 0 0 0 0 0 0 0 0 0 0 0 0
213 104 42 72 159 130 133 150 144 168 150 127 164 187 201 202 98 2 0 0 0 0 0 0 0 0 0 0 0 0 0 0 0 0 0 0 0 0 0 0 0 0 0
196 198 224 238 244 209 149 219 188 210 210 159 81 137 72 15 3 0 2 0 0 0 0 0 0 0 0 0 0 0 0 0 0 0 0 0 0 0 0 0 0 0 0
210 223 153 154 181 86 0 0 0 234 121 111 65 63 2 0 0 0 0 0 0 0 0 0 0 0 0 0 0 0 0 0 0 0 0 0 0 0 0 0 0 0 0
221 201 175 175 162 181 0 0 0 3 81 216 60 9 4 0 0 0 1 1 1 0 0 0 0 0 0 0 0 0 0 0 0 0 0 0 0 0 0 0 0 0 0
236 202 195 161 164 166 21 0 0 0 15 68 64 56 19 0 0 0 0 0 0 0 0 0 0 0 0 0 0 0 0 0 0 0 0 0 0 0 0 0 0 0 0
279 310 254 185 112 180 1 0 0 0 0 1 0 0 1 0 0 1 0 1 0 1 1 2 1 1 0 0 0 0 0 0 0 0 0 0 0 0 0 0 0 0 0
357 199 0 0 0 0 0 0 1 1 0 0 0 0 0 1 0 0 0 0 0 1 1 1 1 0 0 0 0 0 0 0 0 0 0 0 0 0 0 0 0 0 0